Weather History for Burlington, IA

Change the Weather History Date:

Wednesday, February 8, 2012

  Actual Average Record
Temperature  
Mean Temperature 26 °F 28 °F  
Max Temperature 31 °F 37 °F 66 °F (1990)
Min Temperature 21 °F 19 °F -21 °F (1899)
Degree Days  
Heating Degree Days 39 37  
Month to date heating degree days 238 301  
Since 1 July heating degree days 3304 3702  
Cooling Degree Days 0 0  
Month to date cooling degree days 0 0  
Year to date cooling degree days 0 0  
Moisture  
Dew Point 21 °F    
Average Humidity 74    
Maximum Humidity 85    
Minimum Humidity 63    
Precipitation  
Precipitation 0.00 in 0.05 in 0.97 in (1950)
Month to date precipitation 0.49 0.38  
Year to date precipitation 0.78 1.62  
Sea Level Pressure  
Sea Level Pressure 30.42 in    
Wind  
Wind Speed 6 mph (NNW)    
Max Wind Speed 12 mph    
Max Gust Speed 15 mph    
Visibility 10 miles    
Events      
T = Trace of Precipitation, MM = Missing Value Source: NWS Daily Summary

Daily Weather History Graph

Daily Weather History Graph

Search for Another Location

Airport:

Trip Planner

Search our weather history database for the weather conditions in past years. The results will help you decide how hot, cold, wet, or windy it might be!

Date:

Astronomy

Feb. 08, 2012 Rise Set
Actual Time 7:07 AM CST 5:30 PM CST
Civil Twilight 6:39 AM CST 5:58 PM CST
Nautical Twilight 6:06 AM CST 6:31 PM CST
Astronomical Twilight 5:34 AM CST 7:03 PM CST
Moon 6:50 PM CST (2/8) 7:10 AM CST (2/8)
Length of Visible Light 11h 19m
Length of Day
10h 22m
Full, 99% of the Moon is Illuminated
Feb 8
Full
Feb 14
Last Quarter
Feb 21
New
Feb 29
First Quarter
Mar 8
Full

Hourly Weather History & Observations

Time (CST) Temp. Windchill Dew Point Humidity Pressure Visibility Wind Dir Wind Speed Gust Speed Precip Events Conditions
12:53 AM 28.9 °F 19.8 °F 25.0 °F 85% 30.44 in 10.0 mi NNE 10.4 mph - N/A   Overcast
1:53 AM 28.0 °F 19.3 °F 25.0 °F 88% 30.44 in 10.0 mi North 9.2 mph - N/A   Overcast
2:53 AM 28.0 °F 20.8 °F 25.0 °F 88% 30.44 in 10.0 mi North 6.9 mph - N/A   Overcast
3:41 AM 26.6 °F 18.2 °F 23.0 °F 86% 30.41 in 10.0 mi NNE 8.1 mph - N/A   Overcast
3:53 AM 27.0 °F 17.3 °F 23.0 °F 85% 30.44 in 10.0 mi NNE 10.4 mph - N/A   Overcast
4:53 AM 27.0 °F 18.7 °F 21.9 °F 81% 30.45 in 10.0 mi North 8.1 mph - N/A   Overcast
5:53 AM 27.0 °F 20.5 °F 19.9 °F 75% 30.45 in 10.0 mi NNE 5.8 mph - N/A   Overcast
6:53 AM 27.0 °F 20.5 °F 19.0 °F 72% 30.46 in 10.0 mi North 5.8 mph - N/A   Overcast
7:06 AM 26.6 °F 20.0 °F 19.4 °F 74% 30.43 in 10.0 mi North 5.8 mph - N/A   Overcast
7:53 AM 27.0 °F 20.5 °F 19.0 °F 72% 30.47 in 10.0 mi North 5.8 mph - N/A   Overcast
8:53 AM 27.0 °F 20.5 °F 21.0 °F 78% 30.48 in 10.0 mi NNW 5.8 mph - N/A   Overcast
9:53 AM 28.0 °F 21.7 °F 21.0 °F 75% 30.48 in 10.0 mi NNW 5.8 mph - N/A   Overcast
10:23 AM 28.4 °F 21.2 °F 21.2 °F 74% 30.45 in 10.0 mi NNW 6.9 mph - N/A   Overcast
10:53 AM 28.9 °F 22.8 °F 23.0 °F 78% 30.48 in 8.0 mi WNW 5.8 mph - N/A   Overcast
11:08 AM 28.4 °F 21.2 °F 23.0 °F 80% 30.45 in 9.0 mi NW 6.9 mph - N/A   Overcast
11:53 AM 30.0 °F 23.2 °F 21.9 °F 72% 30.46 in 10.0 mi NW 6.9 mph - N/A   Overcast
12:53 PM 30.0 °F 25.2 °F 23.0 °F 75% 30.44 in 10.0 mi Variable 4.6 mph - N/A   Overcast
1:05 PM 30.2 °F 23.4 °F 21.2 °F 69% 30.41 in 10.0 mi NW 6.9 mph - N/A   Overcast
1:53 PM 30.0 °F 21.7 °F 21.0 °F 69% 30.42 in 10.0 mi NW 9.2 mph - N/A   Overcast
2:06 PM 30.2 °F 23.4 °F 21.2 °F 69% 30.39 in 10.0 mi NW 6.9 mph - N/A   Overcast
2:16 PM 30.2 °F 23.4 °F 21.2 °F 69% 30.39 in 10.0 mi NW 6.9 mph - N/A   Overcast
2:40 PM 30.2 °F 23.4 °F 21.2 °F 69% 30.39 in 10.0 mi NW 6.9 mph - N/A   Overcast
2:53 PM 30.0 °F 24.1 °F 21.0 °F 69% 30.41 in 10.0 mi WNW 5.8 mph - N/A   Overcast
3:53 PM 30.0 °F 24.1 °F 19.0 °F 64% 30.40 in 10.0 mi West 5.8 mph - N/A   Overcast
4:14 PM 30.2 °F 25.4 °F 19.4 °F 64% 30.38 in 10.0 mi WNW 4.6 mph - N/A   Overcast
4:44 PM 30.2 °F 21.9 °F 19.4 °F 64% 30.38 in 10.0 mi West 9.2 mph - N/A   Overcast
4:53 PM 30.0 °F 22.4 °F 19.9 °F 66% 30.41 in 10.0 mi NW 8.1 mph - N/A   Overcast
5:53 PM 28.9 °F 23.9 °F 19.9 °F 69% 30.41 in 10.0 mi West 4.6 mph - N/A   Overcast
6:53 PM 28.0 °F 21.7 °F 19.0 °F 69% 30.40 in 10.0 mi WNW 5.8 mph - N/A   Overcast
7:53 PM 28.0 °F 20.0 °F 18.0 °F 66% 30.40 in 10.0 mi WNW 8.1 mph - N/A   Overcast
8:44 PM 26.6 °F - 17.6 °F 69% 30.37 in 10.0 mi Calm Calm - N/A   Scattered Clouds
8:53 PM 26.1 °F - 18.0 °F 71% 30.40 in 10.0 mi Calm Calm - N/A   Partly Cloudy
9:53 PM 24.1 °F - 17.1 °F 75% 30.41 in 10.0 mi Calm Calm - N/A   Clear
10:53 PM 23.0 °F 18.4 °F 17.1 °F 78% 30.40 in 10.0 mi NW 3.5 mph - N/A   Clear
11:53 PM 21.0 °F 16.2 °F 17.1 °F 85% 30.40 in 10.0 mi West 3.5 mph - N/A   Clear